Estación de Nogales

Ultimos registro cada 15 minutos 77
Estación Fecha / Hora Temperatura Humedad Lluvia Velocidad Dirección Radiación Presion
77 Nogales 31-08-2026 19:00 13,8 75,6 0 0 330 0,6 991
76 Nogales 31-08-2026 18:45 14,8 70,9 0 0 330 0,6 990,9
75 Nogales 31-08-2026 18:30 15,7 67 0 0 330 4,4 990,8
74 Nogales 31-08-2026 18:15 16,4 65,6 0 0 330 10,6 990,7
73 Nogales 31-08-2026 18:00 17,4 60,7 0 0,3 330 15,6 990,7
72 Nogales 31-08-2026 17:45 20,3 50,1 0 1 275 124,4 990,8
71 Nogales 31-08-2026 17:30 20,9 48,6 0 1,7 223 179,4 990,8
70 Nogales 31-08-2026 17:15 21,9 46,7 0 1,3 218 269,4 990,8
69 Nogales 31-08-2026 17:00 21,1 46,9 0 1,7 250 345,6 990,9
68 Nogales 31-08-2026 16:45 20,9 47,8 0 1,7 232 413,1 990,8
67 Nogales 31-08-2026 16:30 20,2 48,4 0 1,3 209 99,4 990,7
66 Nogales 31-08-2026 16:15 20,6 50,2 0 1,3 167 116,9 990,7
65 Nogales 31-08-2026 16:00 21,6 47,6 0 2 171 179,4 990,7
64 Nogales 31-08-2026 15:45 21,4 48,4 0 1,3 160 560,6 990,8
63 Nogales 31-08-2026 15:30 22 47,3 0 1,7 190 441,9 990,8
62 Nogales 31-08-2026 15:15 22 47,7 0 0,7 218 400,6 990,7
61 Nogales 31-08-2026 15:00 22,2 47 0 0,7 202 469,4 990,7
60 Nogales 31-08-2026 14:45 22,2 50,8 0 1 31 580,6 990,8
59 Nogales 31-08-2026 14:30 22,1 49 0 1 7 726,9 991,2
58 Nogales 31-08-2026 14:15 21,9 49,7 0 0,7 341 733,1 991,5
57 Nogales 31-08-2026 14:00 21,2 50,6 0 0,3 39 754,4 991,6
56 Nogales 31-08-2026 13:45 22 50,5 0 0,7 145 769,4 991,9
55 Nogales 31-08-2026 13:30 21,1 53,1 0 0,3 80 786,9 992
54 Nogales 31-08-2026 13:15 21 55,5 0 0,7 136 811,9 992,3
53 Nogales 31-08-2026 13:00 19,9 57,1 0 1 241 806,9 992,5
52 Nogales 31-08-2026 12:45 20,8 56,9 0 0,7 354 800,6 992,8
51 Nogales 31-08-2026 12:30 19,2 57,7 0 1 66 800,6 992,9
50 Nogales 31-08-2026 12:15 19,3 59,6 0 1,3 77 791,9 993,1
49 Nogales 31-08-2026 12:00 18,8 59,6 0 1 197 778,1 993,3
48 Nogales 31-08-2026 11:45 17,8 63,6 0 1 183 766,9 993,7
47 Nogales 31-08-2026 11:30 18 66,1 0 0,3 143 743,1 993,8
46 Nogales 31-08-2026 11:15 17,6 65,9 0 0,3 181 725,6 993,8
45 Nogales 31-08-2026 11:00 16,5 70,2 0 1 166 688,1 994
44 Nogales 31-08-2026 10:45 15,8 70,8 0 0,7 173 644,4 993,9
43 Nogales 31-08-2026 10:30 15,3 75,8 0 0,3 268 693,1 993,9
42 Nogales 31-08-2026 10:15 16 80,1 0 0 274 581,9 994,2
41 Nogales 31-08-2026 10:00 14,4 91,5 0 0 275 594,4 994,6
40 Nogales 31-08-2026 09:45 12,6 94,4 0 0 275 235,6 994,5
39 Nogales 31-08-2026 09:30 12,4 96,3 0 0 263 256,9 994,5
38 Nogales 31-08-2026 09:15 11,6 96,8 0 0 250 178,1 994,5
37 Nogales 31-08-2026 09:00 11,1 97,1 0 0 250 111,9 994,3
36 Nogales 31-08-2026 08:45 10,9 97,2 0 0 250 93,1 994,2
35 Nogales 31-08-2026 08:30 10,2 97,3 0 0 250 75,6 993,9
34 Nogales 31-08-2026 08:15 10 97,5 0 0 250 55,6 993,6
33 Nogales 31-08-2026 08:00 9,7 97,4 0 0 250 44,4 993,3
32 Nogales 31-08-2026 07:45 9,5 97,3 0 0 250 24,4 993,3
31 Nogales 31-08-2026 07:30 9,4 97,3 0 0 250 13,1 993,1
30 Nogales 31-08-2026 07:15 9,2 97,2 0 0 250 3,1 992,8
29 Nogales 31-08-2026 07:00 9 97,1 0 0 250 0,6 992,6
28 Nogales 31-08-2026 06:45 8,9 97,1 0 0 250 0,6 992,4
27 Nogales 31-08-2026 06:30 9 96,9 0 0 250 0,6 992,3
26 Nogales 31-08-2026 06:15 8,9 96,9 0 0 250 0,6 992,1
25 Nogales 31-08-2026 06:00 8,9 96,8 0 0 250 0,6 992
24 Nogales 31-08-2026 05:45 9 96,7 0,2 0 250 0,6 991,9
23 Nogales 31-08-2026 05:30 9,3 96,4 0 0 250 0,6 991,6
22 Nogales 31-08-2026 05:15 9,9 96,2 0 0 250 0,6 991,7
21 Nogales 31-08-2026 05:00 10,3 96,1 0 0 250 0,6 991,9
20 Nogales 31-08-2026 04:45 10,5 96 0 0 250 0,6 992
19 Nogales 31-08-2026 04:30 10,6 96 0 0 250 0,6 992,1
18 Nogales 31-08-2026 04:15 10,6 96 0 0 250 0,6 992,2
17 Nogales 31-08-2026 04:00 10,6 95,9 0 0,3 236 0,6 992,1
16 Nogales 31-08-2026 03:45 10,8 95,4 0,2 0,3 344 0,6 992
15 Nogales 31-08-2026 03:30 10,7 95,2 0 0 7 0,6 991,7
14 Nogales 31-08-2026 03:15 10,9 94,7 0,2 0 7 0,6 991,7
13 Nogales 31-08-2026 03:00 11 94,6 0 0 7 0,6 991,5
12 Nogales 31-08-2026 02:45 11,2 94,4 0 0 7 0,6 991,2
11 Nogales 31-08-2026 02:30 11 94,3 0 0 7 0,6 990,9
10 Nogales 31-08-2026 02:15 11 94,6 0 0 8 0,6 990,8
9 Nogales 31-08-2026 02:00 11 94,2 0,2 0,3 27 0,6 990,9
8 Nogales 31-08-2026 01:45 11,1 93,6 0,2 0,3 331 0,6 990,9
7 Nogales 31-08-2026 01:30 11,2 92,9 0 0 281 0,6 990,7
6 Nogales 31-08-2026 01:15 11,2 92,5 0 0 281 0,6 990,5
5 Nogales 31-08-2026 01:00 11,4 92,5 0 0 281 0,6 990,5
4 Nogales 31-08-2026 00:45 11,6 92,4 0 0,3 223 0,6 990,5
3 Nogales 31-08-2026 00:30 11,8 89,8 0,2 0 191 0,6 990,3
2 Nogales 31-08-2026 00:15 12,4 87,9 0 0,3 191 0,6 990,5
1 Nogales 31-08-2026 00:00 12,1 87,1 0 0,3 194 0,6 990,7